Moonlight II — 9HFR8 — position and weather

sailwx.info

Track history (hours):
 
Tides and Currents Weather Stations Pressure Air Temp Water Temp Dewpoint Dewpoint Depression Visibility Wind Speed Wind Dir Waves Ship Positions

Moonlight II

Last reported at 2014-Aug-27 22:28 UTC. Time now 2014-Aug-27 23:18 UTC.
Position N 41°59' E 005°13'.

Length 82 m; draft 4.1 m.

Type: Ship. MMSI: 215934000.

Date/timePositionNaut miles runAvg speedWind from/ knotsBaromVisibWave heightAir tempDewpointWater temp
2014-Aug-27 22:28N 41°59' E 005°13'1112.1
2014-Aug-27 21:33N 42°07' E 005°23'1312.6
2014-Aug-27 20:33N 42°16' E 005°35'1312.7
2014-Aug-27 19:33N 42°25' E 005°47'1313.0
2014-Aug-27 18:33N 42°35' E 005°58'1313.1
2014-Aug-27 17:33N 42°44' E 006°11'1312.8
2014-Aug-27 16:33N 42°53' E 006°23'1312.9
2014-Aug-27 15:32N 43°03' E 006°35'1212.6
2014-Aug-27 14:33N 43°12' E 006°46'1313.0
2014-Aug-27 13:33N 43°22' E 006°58'1312.8
2014-Aug-27 12:33N 43°31' E 007°10'1713.2
2014-Aug-27 11:16N 43°44' E 007°26'0 0.0
2014-Aug-26 15:14N 43°44' E 007°26'6 9.3
2014-Aug-26 14:33N 43°40' E 007°20'1211.9
2014-Aug-26 13:33N 43°32' E 007°07'3 2.4
2014-Aug-26 12:30N 43°33' E 007°05'0 0.0
2014-Aug-26 11:24N 43°33' E 007°05'0 0.0
2014-Aug-26 10:30N 43°33' E 007°05'0 0.0
2014-Aug-26 09:30N 43°33' E 007°05'0 0.0
2014-Aug-26 08:30N 43°33' E 007°05'0 0.0
2014-Aug-26 07:30N 43°33' E 007°05'3 2.8
2014-Aug-26 06:33N 43°31' E 007°05'1111.2
2014-Aug-26 05:34N 43°22' E 006°56'1211.7
2014-Aug-26 04:34N 43°12' E 006°47'1711.2
2014-Aug-26 03:03N 42°60' E 006°31'611.7
2014-Aug-26 02:33N 42°55' E 006°25'1212.0
2014-Aug-26 01:33N 42°46' E 006°15'1212.3
2014-Aug-26 00:33N 42°38' E 006°02'8613.2
2014-Aug-25 18:04N 41°36' E 004°43'7313.1
2014-Aug-25 12:29N 40°43' E 003°36'1112.0
2014-Aug-25 11:33N 40°35' E 003°26'1312.5
2014-Aug-25 10:33N 40°26' E 003°14'1312.6
2014-Aug-25 09:34N 40°17' E 003°03'1312.9
2014-Aug-25 08:33N 40°08' E 002°51'1313.1
2014-Aug-25 07:34N 39°58' E 002°40'1313.0
2014-Aug-25 06:33N 39°48' E 002°28'1312.9
2014-Aug-25 05:33N 39°38' E 002°18'1413.6
2014-Aug-25 04:33N 39°27' E 002°07'1313.4
2014-Aug-25 03:33N 39°17' E 001°57'1313.2
2014-Aug-25 02:33N 39°06' E 001°46'1312.9
2014-Aug-25 01:33N 38°57' E 001°35'7 2.2
2014-Aug-24 22:14N 38°55' E 001°26'0 0.0
2014-Aug-24 21:14N 38°55' E 001°26'0 0.0
2014-Aug-24 20:27N 38°55' E 001°26'0 0.0
2014-Aug-24 18:26N 38°55' E 001°26'0 0.0
2014-Aug-24 16:32N 38°55' E 001°26'0 0.0
2014-Aug-24 15:14N 38°55' E 001°26'0 0.0
2014-Aug-24 14:26N 38°55' E 001°26'0 0.0
2014-Aug-24 13:32N 38°55' E 001°26'0 0.0
2014-Aug-24 11:20N 38°55' E 001°26'0 0.0
2014-Aug-24 09:26N 38°55' E 001°26'0 0.0
2014-Aug-24 08:26N 38°55' E 001°26'0 0.0
2014-Aug-24 06:26N 38°55' E 001°26'0 0.0
2014-Aug-24 05:32N 38°55' E 001°26'0 0.0
2014-Aug-24 03:26N 38°55' E 001°26'0 0.0
2014-Aug-24 02:20N 38°55' E 001°26'0 0.0
2014-Aug-24 01:32N 38°55' E 001°26'0 0.0
2014-Aug-24 00:32N 38°55' E 001°26'0 0.0
2014-Aug-23 23:08N 38°55' E 001°26'0 0.0
2014-Aug-23 22:20N 38°55' E 001°26'0 0.0
2014-Aug-23 21:26N 38°55' E 001°26'0 0.0
2014-Aug-23 20:20N 38°55' E 001°26'0 0.0
2014-Aug-23 03:32N 38°55' E 001°26'0 0.0
2014-Aug-23 02:26N 38°55' E 001°26'0 0.0
2014-Aug-23 01:14N 38°55' E 001°26'0 0.0
2014-Aug-23 00:32N 38°55' E 001°26'0 0.0
2014-Aug-22 23:33N 38°55' E 001°26'0 0.0
2014-Aug-22 22:28N 38°55' E 001°26'0 0.0
2014-Aug-22 21:33N 38°55' E 001°26'0 0.0
2014-Aug-22 20:31N 38°55' E 001°26'0 0.0
2014-Aug-22 19:33N 38°55' E 001°26'0 0.0
2014-Aug-22 18:33N 38°55' E 001°26'0 0.0
2014-Aug-22 17:33N 38°55' E 001°26'0 0.0
2014-Aug-22 16:32N 38°55' E 001°26'4 1.1
2014-Aug-22 13:15N 38°51' E 001°25'4 4.4
2014-Aug-22 12:25N 38°55' E 001°26'0 0.0
2014-Aug-22 11:31N 38°55' E 001°26'0 0.0
2014-Aug-22 10:25N 38°55' E 001°26'0 0.0
2014-Aug-22 09:25N 38°55' E 001°26'0 0.0
2014-Aug-22 08:33N 38°55' E 001°26'0 0.0
2014-Aug-22 07:31N 38°55' E 001°26'0 0.0
2014-Aug-22 06:33N 38°55' E 001°26'0 0.0
2014-Aug-22 04:26N 38°55' E 001°26'0 0.0
2014-Aug-22 03:21N 38°55' E 001°26'0 0.0
2014-Aug-22 02:32N 38°55' E 001°26'0 0.0
2014-Aug-22 01:17N 38°55' E 001°26'0 0.0
2014-Aug-22 00:18N 38°55' E 001°26'0 0.0
2014-Aug-21 23:32N 38°55' E 001°26'0 0.0
2014-Aug-21 22:33N 38°55' E 001°26'0 0.0
2014-Aug-21 21:26N 38°55' E 001°26'0 0.0
2014-Aug-21 20:31N 38°55' E 001°26'0 0.0
2014-Aug-21 19:33N 38°55' E 001°26'0 0.0
2014-Aug-21 18:32N 38°55' E 001°26'0 0.0
2014-Aug-21 17:30N 38°55' E 001°26'7 5.7
2014-Aug-21 16:21N 38°50' E 001°20'1 0.2
2014-Aug-21 09:19N 38°51' E 001°19'17 9.7
2014-Aug-21 07:33N 38°59' E 001°38'1312.8
2014-Aug-21 06:33N 39°09' E 001°49'1212.6
2014-Aug-21 05:33N 39°19' E 001°59'1212.3
2014-Aug-21 04:33N 39°29' E 002°08'1312.6
2014-Aug-21 03:33N 39°39' E 002°18'1313.0
2014-Aug-21 02:33N 39°49' E 002°29'1312.8
2014-Aug-21 01:34N 39°59' E 002°40'1312.9
2014-Aug-21 00:33N 40°09' E 002°50'1313.0
2014-Aug-20 23:33N 40°19' E 003°01'1313.1
2014-Aug-20 22:33N 40°30' E 003°10'1313.1
2014-Aug-20 21:33N 40°40' E 003°22'2813.2
2014-Aug-20 19:26N 41°01' E 003°45'1112.2
2014-Aug-20 18:32N 41°10' E 003°54'1312.7
2014-Aug-20 17:33N 41°20' E 004°04'1312.7
2014-Aug-20 16:32N 41°30' E 004°15'1313.0
2014-Aug-20 15:31N 41°41' E 004°26'1212.2
2014-Aug-20 14:30N 41°50' E 004°36'1412.7
2014-Aug-20 13:26N 42°01' E 004°47'1312.7
2014-Aug-20 12:26N 42°11' E 004°58'1212.3
2014-Aug-20 11:28N 42°20' E 005°08'1212.5
2014-Aug-20 10:30N 42°30' E 005°18'1412.8
2014-Aug-20 09:26N 42°40' E 005°30'1112.5
2014-Aug-20 08:33N 42°47' E 005°42'1313.0
2014-Aug-20 07:33N 42°50' E 005°59'1313.0
2014-Aug-20 06:33N 42°54' E 006°16'1313.0
2014-Aug-20 05:34N 42°60' E 006°32'1313.0
2014-Aug-20 04:33N 43°10' E 006°43'8 7.5
2014-Aug-20 03:32N 43°17' E 006°38'0 0.0
2014-Aug-20 02:26N 43°17' E 006°38'0 0.0
2014-Aug-20 01:32N 43°17' E 006°38'0 0.0
2014-Aug-20 00:32N 43°17' E 006°38'0 0.0
2014-Aug-19 23:32N 43°17' E 006°38'0 0.0
2014-Aug-19 22:26N 43°17' E 006°38'0 0.0
2014-Aug-19 21:32N 43°17' E 006°38'0 0.0
2014-Aug-19 20:32N 43°17' E 006°38'0 0.0
2014-Aug-19 19:32N 43°17' E 006°38'0 0.0
2014-Aug-19 18:32N 43°17' E 006°38'1 1.1
2014-Aug-19 17:33N 43°17' E 006°39'4 3.7
2014-Aug-19 16:32N 43°13' E 006°41'0 0.0
2014-Aug-19 15:32N 43°13' E 006°41'0 0.0
2014-Aug-19 14:29N 43°13' E 006°41'0 0.1
2014-Aug-19 13:32N 43°13' E 006°41'0 0.0
2014-Aug-19 12:32N 43°13' E 006°41'0 0.0
2014-Aug-19 11:23N 43°13' E 006°41'0 0.0
2014-Aug-19 10:26N 43°13' E 006°41'0 0.0
2014-Aug-19 09:32N 43°13' E 006°40'0 0.1
2014-Aug-19 08:29N 43°13' E 006°40'0 0.1
2014-Aug-19 07:32N 43°13' E 006°40'4 4.4
2014-Aug-19 06:34N 43°17' E 006°43'4 3.8
2014-Aug-19 05:31N 43°17' E 006°38'0 0.0
2014-Aug-19 04:31N 43°17' E 006°38'0 0.0
2014-Aug-19 03:31N 43°17' E 006°38'0 0.0
2014-Aug-19 02:31N 43°17' E 006°38'0 0.0
2014-Aug-19 01:28N 43°17' E 006°38'0 0.0
2014-Aug-19 00:31N 43°17' E 006°38'0 0.0
2014-Aug-18 23:31N 43°17' E 006°38'0 0.0
2014-Aug-18 22:28N 43°17' E 006°38'0 0.0
2014-Aug-18 21:31N 43°17' E 006°38'0 0.0
2014-Aug-18 20:31N 43°17' E 006°38'0 0.0
2014-Aug-18 19:31N 43°17' E 006°38'0 0.1
2014-Aug-18 18:31N 43°17' E 006°38'0 0.0
2014-Aug-18 17:33N 43°17' E 006°38'1 0.8
2014-Aug-18 16:33N 43°17' E 006°39'1211.6
2014-Aug-18 15:33N 43°24' E 006°52'1211.7
2014-Aug-18 14:33N 43°30' E 007°05'2 1.6
2014-Aug-18 13:21N 43°32' E 007°04'0 0.1
2014-Aug-18 12:33N 43°32' E 007°03'0 0.0
2014-Aug-18 11:27N 43°32' E 007°03'0 0.0
2014-Aug-18 10:21N 43°32' E 007°03'0 0.0
2014-Aug-18 09:27N 43°32' E 007°03'0 0.0
2014-Aug-18 08:33N 43°32' E 007°03'1 1.2
2014-Aug-18 07:33N 43°32' E 007°05'1211.6
2014-Aug-18 06:33N 43°39' E 007°18'4 4.3
2014-Aug-18 05:32N 43°42' E 007°21'0 0.0
2014-Aug-18 04:26N 43°42' E 007°21'0 0.0
2014-Aug-18 03:32N 43°42' E 007°21'0 0.0
2014-Aug-18 02:32N 43°42' E 007°21'0 0.0
2014-Aug-18 01:26N 43°42' E 007°21'0 0.0
2014-Aug-18 00:20N 43°42' E 007°21'  
Track history (hours):
 
Tides and Currents Weather Stations Pressure Air Temp Water Temp Dewpoint Dewpoint Depression Visibility Wind Speed Wind Dir Waves Ship Positions

Moonlight II

Last reported at 2014-Aug-27 22:28 UTC. Time now 2014-Aug-27 23:18 UTC.
Position N 41°59' E 005°13'.

Length 82 m; draft 4.1 m.

Type: Ship. MMSI: 215934000.

Date/timePositionNaut miles runAvg speedWind from/ knotsBaromVisibWave heightAir tempDewpointWater temp
2014-Aug-27 22:28N 41°59' E 005°13'1112.1
2014-Aug-27 21:33N 42°07' E 005°23'1312.6
2014-Aug-27 20:33N 42°16' E 005°35'1312.7
2014-Aug-27 19:33N 42°25' E 005°47'1313.0
2014-Aug-27 18:33N 42°35' E 005°58'1313.1
2014-Aug-27 17:33N 42°44' E 006°11'1312.8
2014-Aug-27 16:33N 42°53' E 006°23'1312.9
2014-Aug-27 15:32N 43°03' E 006°35'1212.6
2014-Aug-27 14:33N 43°12' E 006°46'1313.0
2014-Aug-27 13:33N 43°22' E 006°58'1312.8
2014-Aug-27 12:33N 43°31' E 007°10'1713.2
2014-Aug-27 11:16N 43°44' E 007°26'0 0.0
2014-Aug-26 15:14N 43°44' E 007°26'6 9.3
2014-Aug-26 14:33N 43°40' E 007°20'1211.9
2014-Aug-26 13:33N 43°32' E 007°07'3 2.4
2014-Aug-26 12:30N 43°33' E 007°05'0 0.0
2014-Aug-26 11:24N 43°33' E 007°05'0 0.0
2014-Aug-26 10:30N 43°33' E 007°05'0 0.0
2014-Aug-26 09:30N 43°33' E 007°05'0 0.0
2014-Aug-26 08:30N 43°33' E 007°05'0 0.0
2014-Aug-26 07:30N 43°33' E 007°05'3 2.8
2014-Aug-26 06:33N 43°31' E 007°05'1111.2
2014-Aug-26 05:34N 43°22' E 006°56'1211.7
2014-Aug-26 04:34N 43°12' E 006°47'1711.2
2014-Aug-26 03:03N 42°60' E 006°31'611.7
2014-Aug-26 02:33N 42°55' E 006°25'1212.0
2014-Aug-26 01:33N 42°46' E 006°15'1212.3
2014-Aug-26 00:33N 42°38' E 006°02'8613.2
2014-Aug-25 18:04N 41°36' E 004°43'7313.1
2014-Aug-25 12:29N 40°43' E 003°36'1112.0
2014-Aug-25 11:33N 40°35' E 003°26'1312.5
2014-Aug-25 10:33N 40°26' E 003°14'1312.6
2014-Aug-25 09:34N 40°17' E 003°03'1312.9
2014-Aug-25 08:33N 40°08' E 002°51'1313.1
2014-Aug-25 07:34N 39°58' E 002°40'1313.0
2014-Aug-25 06:33N 39°48' E 002°28'1312.9
2014-Aug-25 05:33N 39°38' E 002°18'1413.6
2014-Aug-25 04:33N 39°27' E 002°07'1313.4
2014-Aug-25 03:33N 39°17' E 001°57'1313.2
2014-Aug-25 02:33N 39°06' E 001°46'1312.9
2014-Aug-25 01:33N 38°57' E 001°35'7 2.2
2014-Aug-24 22:14N 38°55' E 001°26'0 0.0
2014-Aug-24 21:14N 38°55' E 001°26'0 0.0
2014-Aug-24 20:27N 38°55' E 001°26'0 0.0
2014-Aug-24 18:26N 38°55' E 001°26'0 0.0
2014-Aug-24 16:32N 38°55' E 001°26'0 0.0
2014-Aug-24 15:14N 38°55' E 001°26'0 0.0
2014-Aug-24 14:26N 38°55' E 001°26'0 0.0
2014-Aug-24 13:32N 38°55' E 001°26'0 0.0
2014-Aug-24 11:20N 38°55' E 001°26'0 0.0
2014-Aug-24 09:26N 38°55' E 001°26'0 0.0
2014-Aug-24 08:26N 38°55' E 001°26'0 0.0
2014-Aug-24 06:26N 38°55' E 001°26'0 0.0
2014-Aug-24 05:32N 38°55' E 001°26'0 0.0
2014-Aug-24 03:26N 38°55' E 001°26'0 0.0
2014-Aug-24 02:20N 38°55' E 001°26'0 0.0
2014-Aug-24 01:32N 38°55' E 001°26'0 0.0
2014-Aug-24 00:32N 38°55' E 001°26'0 0.0
2014-Aug-23 23:08N 38°55' E 001°26'0 0.0
2014-Aug-23 22:20N 38°55' E 001°26'0 0.0
2014-Aug-23 21:26N 38°55' E 001°26'0 0.0
2014-Aug-23 20:20N 38°55' E 001°26'0 0.0
2014-Aug-23 03:32N 38°55' E 001°26'0 0.0
2014-Aug-23 02:26N 38°55' E 001°26'0 0.0
2014-Aug-23 01:14N 38°55' E 001°26'0 0.0
2014-Aug-23 00:32N 38°55' E 001°26'0 0.0
2014-Aug-22 23:33N 38°55' E 001°26'0 0.0
2014-Aug-22 22:28N 38°55' E 001°26'0 0.0
2014-Aug-22 21:33N 38°55' E 001°26'0 0.0
2014-Aug-22 20:31N 38°55' E 001°26'0 0.0
2014-Aug-22 19:33N 38°55' E 001°26'0 0.0
2014-Aug-22 18:33N 38°55' E 001°26'0 0.0
2014-Aug-22 17:33N 38°55' E 001°26'0 0.0
2014-Aug-22 16:32N 38°55' E 001°26'4 1.1
2014-Aug-22 13:15N 38°51' E 001°25'4 4.4
2014-Aug-22 12:25N 38°55' E 001°26'0 0.0
2014-Aug-22 11:31N 38°55' E 001°26'0 0.0
2014-Aug-22 10:25N 38°55' E 001°26'0 0.0
2014-Aug-22 09:25N 38°55' E 001°26'0 0.0
2014-Aug-22 08:33N 38°55' E 001°26'0 0.0
2014-Aug-22 07:31N 38°55' E 001°26'0 0.0
2014-Aug-22 06:33N 38°55' E 001°26'0 0.0
2014-Aug-22 04:26N 38°55' E 001°26'0 0.0
2014-Aug-22 03:21N 38°55' E 001°26'0 0.0
2014-Aug-22 02:32N 38°55' E 001°26'0 0.0
2014-Aug-22 01:17N 38°55' E 001°26'0 0.0
2014-Aug-22 00:18N 38°55' E 001°26'0 0.0
2014-Aug-21 23:32N 38°55' E 001°26'0 0.0
2014-Aug-21 22:33N 38°55' E 001°26'0 0.0
2014-Aug-21 21:26N 38°55' E 001°26'0 0.0
2014-Aug-21 20:31N 38°55' E 001°26'0 0.0
2014-Aug-21 19:33N 38°55' E 001°26'0 0.0
2014-Aug-21 18:32N 38°55' E 001°26'0 0.0
2014-Aug-21 17:30N 38°55' E 001°26'7 5.7
2014-Aug-21 16:21N 38°50' E 001°20'1 0.2
2014-Aug-21 09:19N 38°51' E 001°19'17 9.7
2014-Aug-21 07:33N 38°59' E 001°38'1312.8
2014-Aug-21 06:33N 39°09' E 001°49'1212.6
2014-Aug-21 05:33N 39°19' E 001°59'1212.3
2014-Aug-21 04:33N 39°29' E 002°08'1312.6
2014-Aug-21 03:33N 39°39' E 002°18'1313.0
2014-Aug-21 02:33N 39°49' E 002°29'1312.8
2014-Aug-21 01:34N 39°59' E 002°40'1312.9
2014-Aug-21 00:33N 40°09' E 002°50'1313.0
2014-Aug-20 23:33N 40°19' E 003°01'1313.1
2014-Aug-20 22:33N 40°30' E 003°10'1313.1
2014-Aug-20 21:33N 40°40' E 003°22'2813.2
2014-Aug-20 19:26N 41°01' E 003°45'1112.2
2014-Aug-20 18:32N 41°10' E 003°54'1312.7
2014-Aug-20 17:33N 41°20' E 004°04'1312.7
2014-Aug-20 16:32N 41°30' E 004°15'1313.0
2014-Aug-20 15:31N 41°41' E 004°26'1212.2
2014-Aug-20 14:30N 41°50' E 004°36'1412.7
2014-Aug-20 13:26N 42°01' E 004°47'1312.7
2014-Aug-20 12:26N 42°11' E 004°58'1212.3
2014-Aug-20 11:28N 42°20' E 005°08'1212.5
2014-Aug-20 10:30N 42°30' E 005°18'1412.8
2014-Aug-20 09:26N 42°40' E 005°30'1112.5
2014-Aug-20 08:33N 42°47' E 005°42'1313.0
2014-Aug-20 07:33N 42°50' E 005°59'1313.0
2014-Aug-20 06:33N 42°54' E 006°16'1313.0
2014-Aug-20 05:34N 42°60' E 006°32'1313.0
2014-Aug-20 04:33N 43°10' E 006°43'8 7.5
2014-Aug-20 03:32N 43°17' E 006°38'0 0.0
2014-Aug-20 02:26N 43°17' E 006°38'0 0.0
2014-Aug-20 01:32N 43°17' E 006°38'0 0.0
2014-Aug-20 00:32N 43°17' E 006°38'0 0.0
2014-Aug-19 23:32N 43°17' E 006°38'0 0.0
2014-Aug-19 22:26N 43°17' E 006°38'0 0.0
2014-Aug-19 21:32N 43°17' E 006°38'0 0.0
2014-Aug-19 20:32N 43°17' E 006°38'0 0.0
2014-Aug-19 19:32N 43°17' E 006°38'0 0.0
2014-Aug-19 18:32N 43°17' E 006°38'1 1.1
2014-Aug-19 17:33N 43°17' E 006°39'4 3.7
2014-Aug-19 16:32N 43°13' E 006°41'0 0.0
2014-Aug-19 15:32N 43°13' E 006°41'0 0.0
2014-Aug-19 14:29N 43°13' E 006°41'0 0.1
2014-Aug-19 13:32N 43°13' E 006°41'0 0.0
2014-Aug-19 12:32N 43°13' E 006°41'0 0.0
2014-Aug-19 11:23N 43°13' E 006°41'0 0.0
2014-Aug-19 10:26N 43°13' E 006°41'0 0.0
2014-Aug-19 09:32N 43°13' E 006°40'0 0.1
2014-Aug-19 08:29N 43°13' E 006°40'0 0.1
2014-Aug-19 07:32N 43°13' E 006°40'4 4.4
2014-Aug-19 06:34N 43°17' E 006°43'4 3.8
2014-Aug-19 05:31N 43°17' E 006°38'0 0.0
2014-Aug-19 04:31N 43°17' E 006°38'0 0.0
2014-Aug-19 03:31N 43°17' E 006°38'0 0.0
2014-Aug-19 02:31N 43°17' E 006°38'0 0.0
2014-Aug-19 01:28N 43°17' E 006°38'0 0.0
2014-Aug-19 00:31N 43°17' E 006°38'0 0.0
2014-Aug-18 23:31N 43°17' E 006°38'0 0.0
2014-Aug-18 22:28N 43°17' E 006°38'0 0.0
2014-Aug-18 21:31N 43°17' E 006°38'0 0.0
2014-Aug-18 20:31N 43°17' E 006°38'0 0.0
2014-Aug-18 19:31N 43°17' E 006°38'0 0.1
2014-Aug-18 18:31N 43°17' E 006°38'0 0.0
2014-Aug-18 17:33N 43°17' E 006°38'1 0.8
2014-Aug-18 16:33N 43°17' E 006°39'1211.6
2014-Aug-18 15:33N 43°24' E 006°52'1211.7
2014-Aug-18 14:33N 43°30' E 007°05'2 1.6
2014-Aug-18 13:21N 43°32' E 007°04'0 0.1
2014-Aug-18 12:33N 43°32' E 007°03'0 0.0
2014-Aug-18 11:27N 43°32' E 007°03'0 0.0
2014-Aug-18 10:21N 43°32' E 007°03'0 0.0
2014-Aug-18 09:27N 43°32' E 007°03'0 0.0
2014-Aug-18 08:33N 43°32' E 007°03'1 1.2
2014-Aug-18 07:33N 43°32' E 007°05'1211.6
2014-Aug-18 06:33N 43°39' E 007°18'4 4.3
2014-Aug-18 05:32N 43°42' E 007°21'0 0.0
2014-Aug-18 04:26N 43°42' E 007°21'0 0.0
2014-Aug-18 03:32N 43°42' E 007°21'0 0.0
2014-Aug-18 02:32N 43°42' E 007°21'0 0.0
2014-Aug-18 01:26N 43°42' E 007°21'0 0.0
2014-Aug-18 00:20N 43°42' E 007°21'  

Dump ship's entire track history